Погода в Людерице

Намибия     26°38′44″S   15°09′37″E
темп.,
°C
ветер,
м/с
пор.,
м/с
влажн.,
%
обл.,
%
осадки,
мм/ч
давл.,
гПа
погр.,
м
4 марта, чт
чт423:00+22ю68550 0.0 1012184
02:00+21ю45570 0.0 101287
05:00+20ю45580 0.0 101194
08:00+22ю44490 0.0 101299
11:00+30ю66290 0.0 1012362
14:00+30ююз1011330 0.0 1010436
17:00+28ю1113420 0.0 1009377
20:00+25ю913430 0.0 1010335
5 марта, пт
пт523:00+22ю79530 0.0 1012173
02:00+21ю68560 0.0 1011137
05:00+19ю56630 0.0 1011108
08:00+19ю44560 0.0 1012116
11:00+26ююз66360 0.0 1012329
14:00+27ююз77400 0.0 1011373
17:00+24ююз89510 0.0 1011325
20:00+20ю69620 0.0 1012246
6 марта, сб
сб623:00+19ю45630 0.0 101499
02:00+18ю44610 0.0 101364
05:00+18ююв23570 0.0 101333
08:00+19ю45510 0.0 101591
11:00+27ю65280 0.0 1016368
14:00+28ю89340 0.0 1015427
17:00+25ю1114420 0.0 1014404
20:00+23ю811490 0.0 1015273
7 марта, вс
вс723:00+21ю57480 0.0 1016113
02:00+20ю55510 0.0 101572
05:00+18ю44600 0.0 101482
08:00+19ю23520 0.0 101585
11:00+27ююз54320 0.0 1014347
14:00+27ююз88380 0.0 1013413
17:00+24ю78470 0.0 1011352
20:00+19ю58710 0.0 1013242
8 марта, пн
пн823:00+17ююв610790 0.0 1014314
02:00+16ю33710 0.0 101455
05:00+15ююв34750 0.0 101363
08:00+18ююв34570 0.0 1014116
11:00+25ю55330 0.0 1014593
14:00+25ююз88450 0.0 1012475
17:00+23ююз810560 0.0 1011475
20:00+19ю811750 0.0 1014527